Погода в Казане

Узбекистан     39°48′12″N   67°02′44″E
темп.,
°C
ветер,
м/с
пор.,
м/с
влажн.,
%
обл.,
%
осадки,
мм/ч
давл.,
гПа
погр.,
м
1 марта, пн
пн123:00+6в234155 0.0 102142
02:00+6вюв2342100 0.0 102030
05:00+5вюв344164 0.0 102034
08:00+6вюв33350 0.0 102043
11:00+13юв23200 0.0 1019265
14:00+18юз711150 0.0 10182526
17:00+17зюз69190 0.0 10171750
20:00+12юз34300 0.0 102077
2 марта, вт
вт223:00+10ююз223133 0.0 102236
02:00+8в113566 0.0 102222
05:00+8вюв123678 0.0 102222
08:00+9юв3333100 0.0 102352
11:00+14юв3423100 0.0 1022294
14:00+16в0119100 0.0 1020994
17:00+15зсз5524100 0.0 10202468
20:00+12всв1237100 0.0 1023178
3 марта, ср
ср323:00+10в2343100 0.0 1024116
02:00+8вюв355879 0.0 1024137
05:00+7вюв236381 0.0 102472
08:00+6в456590 0.0 1024147
11:00+11вюв115591 0.0 1022571
14:00+13зсз354661 0.0 10201417
17:00+12ююз454981 0.3 10191487
20:00+10вюв346790 0.2 1020264
4 марта, чт
чт423:00+8вюв347545 0.2 1020133
02:00+8вюв23760 0.0 101855
05:00+7вюв23750 0.0 101852
08:00+8вюв23709 0.3 101872
11:00+13ююз134352 0.3 1017469
14:00+12сз565685 0.1 1017803
17:00+13юв225485 0.3 1018546
20:00+11юв356839 0.6 1020135
5 марта, пт
пт523:00+10з355754 1.0 1023256
02:00+8зсз576433 0.3 1024307
05:00+4зюз359067 8.4 1028407
08:00+4вюв3490100 3.8 1029218
11:00+5всв457395 3.8 1027369
14:00+7в446748 0.0 1024568
17:00+6в457170 0.0 1022398
20:00+5в576982 0.0 1020324